STARLINK-34548, 64716

Orbit data source: Space-Track

STARLINK-34548, 64716 is a payload satellite owned by SpaceX/Seattle (US) in LEO that was launched on Sat, 28 Jun 2025 UTC via an FALCON 9 launch vehicle from the Air Force Western Test Range (AFWTR). Payload-class satellites include a variety of spacecraft equipped with specific instruments for various scientific and technological missions. These include communications satellites like Starlink; space stations such as the ISS; scientific satellites like the Hubble; Earth observation satellites from companies like Planet Labs, Umbra, and HawkEye 360; GPS; miniature CubeSats for education and research; and military/defense satellites.

Loading next visibility...
Identifier
64716, 2025-142W
Orbit
LEO
Last TLE update
3 hours ago
Origin
Manufacturer
SpaceX/Seattle
Mission
Operational spacecraft
Bus & Motor
STARLINK V2MO, Unknown motor
Mass
575 kg wet, ~530 kg dry
Launch date (UTC)
2025-06-28 (3 weeks ago)
Launch vehicle
FALCON 9
Launch site
Air Force Western Test Range (AFWTR)
Object type
Payload
Rocket body
Debris
Shape & HBR
Unknown
Radar Cross Section
Large (>1 m²)

Expand to show TLE details & history

TLE from 3 hours ago
0 STARLINK-34548
1 64716U 25142W   25199.56382136 -.00235953  00000-0 -37359-2 0  9996
2 64716  70.0004 194.6794 0003552 277.1736  82.9047 15.54037756  4114
Epoch: 2025-07-18T13:31Z
TLE epoch observation values (Epoch: 2025-07-18T13:31:54.165Z)
Latitude
-0.0001°
Longitude
55.0902°
Altitude
407.138 km
Speed
7.667 km/s
True Right ascension
12h 58m 43s
True Declination
0° 00' 00"
Sunlit
Object was in daylight at epoch
Visualization orbit readout
Latitude
-9.30775°
Longitude
51.3411°
Altitude
408.598 km
Speed
7.666 km/s
Apparent Right ascension
14h 37m 57s
Apparent Declination
-28° 17' 25"
Sunlit
Object is in daylight
Visualization observer readout
Local Sidereal Time
05:21:13
Azimuth
83.646° E
Elevation
-54.61°
Doppler factor
1
Orbital elements
Apogee altitude
405.257 km
Perigee altitude
400.44 km
Semi-major axis
6,780.986 km
Eccentricity
0.00036
Inclination
70.0004°
RAAN
194.6794°
Arg. of periapsis
277.1736°
True anomaly
82.94509°
Mean anomaly
82.9047°
Eccentric anomaly
82.9249°
Mean motion
3.88691 °/min
Orbital period
92.62 mins
BSTAR
-0.0037359
Loading maneuver chart data...
Loading SW <> Apogee altitude chart data...
Loading historical data...
Loading historical data...
Loading historical data...
Loading historical data...
Loading historical data...
Loading historical data...
Loading historical data...
|